Stations météo

réclame
Mon MeteoGroup
Lossiemouth, Grande-Bretagne (3068): Température de l'air & dewpoint: 14.07.2019 23:00:00 - 20.07.2019 23:00:00 (BST)Lossiemouth, Grande-Bretagne (3068): Vitesse du vent: 14.07.2019 23:00:00 - 20.07.2019 23:00:00 (BST)Lossiemouth, Grande-Bretagne (3068): Direction du vent: 14.07.2019 23:00:00 - 20.07.2019 23:00:00 (BST)Lossiemouth, Grande-Bretagne (3068): reduced air pressure: 14.07.2019 23:00:00 - 20.07.2019 23:00:00 (BST)Lossiemouth, Grande-Bretagne (3068): visibility: 14.07.2019 23:00:00 - 20.07.2019 23:00:00 (BST)Lossiemouth, Grande-Bretagne (3068): Quantités de précipitations: 14.07.2019 23:00:00 - 20.07.2019 23:00:00 (BST)
Date & Time tt [°C] td [°C] ff [km/h] ff [knt] dd ppp [hPa] vv [km] rr [mm]
20.07.2019 23:00:00 13,3 10,6 11 6 W 1008,0 10 0,0
20.07.2019 22:00:00 14,6 11,1 11 6 W 1007,3 10 0,0
20.07.2019 21:00:00 16,3 11,0 15 8 WNW 1006,2 10 0,0
20.07.2019 20:00:00 17,1 11,3 16 9 W 1005,5 10 0,0
20.07.2019 19:00:00 17,1 11,5 16 9 WNW 1005,0 10 0,0
20.07.2019 18:00:00 16,8 12,1 18 10 WNW 1004,5 10 0,0
20.07.2019 17:00:00 16,7 12,3 26 14 W 1003,9 10 0,0
20.07.2019 16:00:00 17,9 13,2 29 16 WNW 1003,0 10 0,0
20.07.2019 15:00:00 18,0 14,1 31 17 W 1002,1 10 0,0
20.07.2019 14:00:00 17,9 14,3 22 12 W 1001,4 10 0,0
20.07.2019 13:00:00 17,8 15,0 24 13 W 1000,8 50 0,0
20.07.2019 12:00:00 17,6 15,9 16 9 W 1000,1 10 0,0
20.07.2019 11:00:00 15,4 14,7 13 7 WNW 999,8 10 0,0
20.07.2019 10:00:00 14,8 14,4 13 7 NW 999,3 7 0,2
20.07.2019 09:00:00 14,5 14,2 13 7 NW 999,0 4,0 0,0
20.07.2019 08:00:00 14,9 14,3 5 3 WNW 998,5 10 0,0
20.07.2019 07:00:00 14,7 14,2 4 2 NE 998,4 7 0,0
20.07.2019 06:00:00 14,6 14,0 13 7 E 998,5 7 0,0
20.07.2019 05:00:00 14,7 14,2 15 8 ENE 998,7 7 0,8
20.07.2019 04:00:00 14,9 14,1 13 7 E 999,4 10 0,0
20.07.2019 03:00:00 15,0 13,9 13 7 E 1000,1 10 0,0
20.07.2019 02:00:00 14,8 13,5 11 6 E 1000,6 25 0,0
20.07.2019 01:00:00 14,6 13,2 9 5 E 1001,2 10 0,0
20.07.2019 00:00:00 15,1 13,4 9 5 ESE 1001,3 10 0,2
19.07.2019 23:00:00 16,3 12,7 13 7 E 1001,5 10 0,0
19.07.2019 22:00:00 16,3 12,9 11 6 ESE 1001,9 10 0,0
19.07.2019 21:00:00 15,9 13,5 15 8 E 1002,0 10 0,0
19.07.2019 20:00:00 15,3 12,9 21 11 E 1002,4 10 0,0
19.07.2019 19:00:00 15,8 13,5 15 8 ENE 1002,9 10 0,0
19.07.2019 18:00:00 15,9 13,0 16 9 E 1003,4 10 1,4
19.07.2019 17:00:00 15,3 13,7 18 10 E 1003,6 10 1,0
19.07.2019 16:00:00 17,0 12,0 16 9 ENE 1003,7 10 0,0
19.07.2019 15:00:00 19,4 13,5 13 7 W 1003,8 10 0,0
19.07.2019 14:00:00 16,3 12,2 21 11 WSW 1004,4 10 0,2
19.07.2019 13:00:00 17,5 13,5 22 12 W 1004,3 10 1,2
19.07.2019 12:00:00 15,7 11,3 22 12 W 1004,4 6 0,0
19.07.2019 11:00:00 17,7 10,9 18 10 WSW 1004,2 10 0,0
19.07.2019 10:00:00 18,5 11,1 18 10 SSW 1004,2 10 0,0
19.07.2019 09:00:00 16,4 11,3 18 10 SW 1004,2 10 0,0
19.07.2019 08:00:00 15,6 11,8 13 7 SW 1004,2 10 0,0
19.07.2019 07:00:00 13,6 11,0 11 6 SSW 1004,0 10 0,0
19.07.2019 06:00:00 11,4 10,0 8 4 SSW 1004,1 10 0,0
19.07.2019 05:00:00 12,0 9,9 9 5 S 1004,0 10 0,0
19.07.2019 04:00:00 10,8 9,5 5 3 S 1004,0 10 0,0
19.07.2019 03:00:00 11,4 9,0 9 5 S 1004,0 10 0,0
19.07.2019 02:00:00 11,7 9,2 11 6 S 1004,1 10 0,0
19.07.2019 01:00:00 11,5 9,3 13 7 S 1004,0 10 0,0
19.07.2019 00:00:00 12,0 10,0 11 6 SW 1003,8 10 0,0
18.07.2019 23:00:00 13,4 11,0 16 9 SW 1003,7 30 0,0
18.07.2019 22:00:00 14,3 11,7 15 8 SW 1003,5 10 0,2
18.07.2019 21:00:00 15,8 11,1 16 9 WSW 1002,8 10 0,0
18.07.2019 20:00:00 16,6 10,9 22 12 WSW 1002,1 10 0,0
18.07.2019 19:00:00 17,1 11,9 21 11 W 1001,9 10 0,4
18.07.2019 18:00:00 16,4 11,4 26 14 WSW 1001,5 10 0,0
18.07.2019 17:00:00 17,4 11,5 18 10 W 1001,2 10 0,0
18.07.2019 16:00:00 18,0 12,6 18 10 WNW 1001,0 10 0,0
18.07.2019 15:00:00 19,6 13,1 16 9 W 1001,0 10 2,2
18.07.2019 14:00:00 19,0 11,7 16 9 WSW 1001,1 10 0,2
18.07.2019 13:00:00 18,6 10,1 13 7 SW 1000,9 10 0,0
18.07.2019 12:00:00 17,9 11,3 22 12 WSW 1001,1 10 0,0
18.07.2019 11:00:00 18,5 11,0 26 14 WSW 1001,1 10 0,0
18.07.2019 10:00:00 16,6 11,5 13 7 WSW 1001,4 10 0,0
18.07.2019 09:00:00 15,1 11,8 8 4 SW 1001,5 10 0,0
18.07.2019 08:00:00 14,3 11,4 8 4 SSW 1001,5 10 0,0
18.07.2019 07:00:00 12,6 10,9 4 2 SSW 1001,4 30 0,0
18.07.2019 06:00:00 10,6 9,4 9 5 SSW 1001,7 50 0,0
18.07.2019 05:00:00 10,8 9,7 4 2 S 1001,9 10 0,0
18.07.2019 04:00:00 12,2 10,9 4 2 S 1002,2 10 0,0
18.07.2019 03:00:00 13,1 12,1 5 3 SSE 1002,6 10 0,2
18.07.2019 02:00:00 13,3 12,1 9 5 SW 1002,6 20 0,2
18.07.2019 01:00:00 13,7 11,4 11 6 SW 1002,9 10 0,2
18.07.2019 00:00:00 14,8 13,6 11 6 W 1002,9 10 1,4
17.07.2019 23:00:00 16,1 13,5 11 6 WSW 1002,7 10 0,0
17.07.2019 22:00:00 17,2 12,9 15 8 SW 1002,8 10 0,0
17.07.2019 21:00:00 17,5 12,9 15 8 SSW 1002,5 10 0,0
17.07.2019 20:00:00 18,1 12,9 15 8 SSW 1002,7 10 0,0
17.07.2019 19:00:00 18,3 14,0 9 5 S 1003,1 10 0,0
17.07.2019 18:00:00 17,9 14,6 15 8 SSE 1003,5 10 0,0
17.07.2019 17:00:00 18,2 13,9 13 7 S 1004,1 10 0,0
17.07.2019 16:00:00 18,8 13,7 15 8 SW 1004,8 10 0,2
17.07.2019 15:00:00 18,1 14,5 9 5 SSE 1005,4 10 0,0
17.07.2019 14:00:00 17,6 15,1 11 6 SSE 1005,9 10 1,2
17.07.2019 13:00:00 17,1 14,6 11 6 SSW 1006,6 10 1,2
17.07.2019 12:00:00 17,6 14,5 8 4 SSW 1006,9 30 0,2
17.07.2019 11:00:00 19,6 13,4 16 9 SSW 1007,0 10 0,0
17.07.2019 10:00:00 18,9 14,0 15 8 SE 1007,6 10 0,0
17.07.2019 09:00:00 18,0 13,5 13 7 SSE 1008,2 10 0,0
17.07.2019 08:00:00 17,5 13,7 13 7 S 1008,7 50 0,0
17.07.2019 07:00:00 15,2 12,7 8 4 SSE 1009,3 10 0,0
17.07.2019 06:00:00 14,5 11,4 2 1 E 1009,9 10 0,0
17.07.2019 05:00:00 14,6 12,5 4 2 NE 1010,7 10 0,0
17.07.2019 04:00:00 13,9 11,8 9 5 SE 1011,2 10 0,0
17.07.2019 03:00:00 13,8 11,9 11 6 SSE 1011,8 10 0,0
17.07.2019 02:00:00 13,3 12,9 4 2 S 1012,7 10 0,0
17.07.2019 01:00:00 13,1 12,4 5 3 SE 1013,3 40 0,0
17.07.2019 00:00:00 14,2 13,1 5 3 SE 1013,7 10 0,0
16.07.2019 23:00:00 14,1 12,0 8 4 ENE 1013,9 10 0,0
16.07.2019 22:00:00 15,5 12,9 5 3 E 1014,2 10 0,0
16.07.2019 21:00:00 16,3 12,6 9 5 E 1014,1 10 0,0
16.07.2019 20:00:00 17,0 12,4 15 8 E 1014,3 10 0,0
16.07.2019 19:00:00 16,4 12,7 21 11 E 1014,6 10 0,0
16.07.2019 18:00:00 17,5 13,2 21 11 ENE 1014,7 10 0,0
16.07.2019 17:00:00 18,9 13,8 13 7 N 1014,8 10 0,0
16.07.2019 16:00:00 19,0 14,2 9 5 NW 1014,9 10 0,0
16.07.2019 15:00:00 18,7 13,0 11 6 NNW 1014,9 10 0,0
16.07.2019 14:00:00 17,9 13,2 9 5 N 1015,2 50 0,0
16.07.2019 13:00:00 19,5 14,2 13 7 NW 1015,4 10 0,0
16.07.2019 12:00:00 17,9 13,8 8 4 NNE 1015,5 10 0,0
16.07.2019 11:00:00 18,3 13,1 4 2 SSE 1015,8 40 0,0
16.07.2019 10:00:00 15,4 13,0 4 2 NNW 1016,3 10 -
16.07.2019 09:00:00 15,3 11,9 5 3 ESE 1016,4 50 0,0
16.07.2019 08:00:00 14,5 12,4 8 4 WSW 1016,7 10 0,0
16.07.2019 07:00:00 13,3 12,0 4 2 SW 1016,8 35 0,0
16.07.2019 06:00:00 12,3 11,5 5 3 W 1017,1 10 0,0
16.07.2019 05:00:00 13,2 12,1 9 5 WSW 1017,3 10 0,0
16.07.2019 04:00:00 13,4 12,3 13 7 W 1017,6 10 0,0
16.07.2019 03:00:00 13,4 12,4 16 9 W 1017,9 10 0,0
16.07.2019 02:00:00 13,5 12,6 15 8 WSW 1018,2 10 0,0
16.07.2019 01:00:00 13,5 12,6 11 6 W 1018,4 10 0,0
16.07.2019 00:00:00 13,7 12,8 11 6 W 1018,7 10 0,0
15.07.2019 23:00:00 13,6 12,6 8 4 N 1018,9 10 0,0
15.07.2019 22:00:00 13,9 12,7 11 6 NNE 1019,1 10 0,0
15.07.2019 21:00:00 14,0 12,4 13 7 NE 1018,9 25 0,0
15.07.2019 20:00:00 15,1 12,9 13 7 NE 1019,0 10 0,0
15.07.2019 19:00:00 15,9 12,3 16 9 ENE 1019,1 10 0,0
15.07.2019 18:00:00 16,1 12,9 16 9 ENE 1019,4 10 0,0
15.07.2019 17:00:00 16,9 11,5 16 9 E 1020,0 10 0,0
15.07.2019 16:00:00 15,4 11,6 16 9 E 1020,6 60 0,0
15.07.2019 15:00:00 15,1 11,5 18 10 E 1021,0 10 0,0
15.07.2019 14:00:00 16,0 12,0 16 9 E 1021,3 10 0,0
15.07.2019 13:00:00 15,6 12,3 15 8 ENE 1021,4 10 0,0
15.07.2019 12:00:00 15,0 10,9 13 7 ENE 1021,7 10 0,0
15.07.2019 11:00:00 15,4 11,2 11 6 E 1022,0 30 0,0
15.07.2019 10:00:00 14,5 10,7 9 5 ENE 1022,5 10 0,0
15.07.2019 09:00:00 13,7 10,7 9 5 NE 1022,8 10 0,0
15.07.2019 08:00:00 12,8 10,7 5 3 SSE 1022,9 10 0,0
15.07.2019 07:00:00 9,7 9,0 2 1 SE 1023,2 10 0,0
15.07.2019 06:00:00 8,8 8,3 5 3 SSE 1023,5 40 0,0
15.07.2019 05:00:00 9,4 8,8 2 1 SSE 1023,8 10 0,0
15.07.2019 04:00:00 10,1 9,3 4 2 SE 1024,0 10 0,0
15.07.2019 03:00:00 11,6 9,8 4 2 SE 1024,3 10 0,0
15.07.2019 02:00:00 12,1 10,0 8 4 SSE 1024,7 10 0,0
15.07.2019 01:00:00 12,9 10,3 13 7 E 1024,9 10 0,0
15.07.2019 00:00:00 12,9 10,8 15 8 E 1024,9 10 0,0
14.07.2019 23:00:00 12,8 10,6 9 5 E 1024,7 10 0,0

tt = Température de l'air
td = dewpoint
ff = Vitesse du vent
dd = Direction du vent
ppp = reduced air pressure
vv = visibility
rr = Quantités de précipitations

stations d'obs. à proximité